Find Starlink 11299

NORAD ID: 61058 Int'l Des: 2024-164 Owner: SPXS Country: US Constellation: starlink operational
LEOCIRCULAR

リアルタイム位置

3D地球を読み込み中...

Starlink 11299について

説明を読み込み中...

次回通過

Passes for default location (London). Set your location on the main map for personalized predictions.

高度履歴

Loading altitude history...

軌道要素

1 61058U 24164J 26127.00344104 .00000761 00000-0 11142-4 0 9998
2 61058 53.1589 24.1009 0001110 82.1853 277.9291 15.69711445 94574
Epoch: May 7, 2026 • Age: 18 hours

現在のステータス

高度 370.9 km
速度 7.69 km/s
衛星直下点 -33.96°S, 148.83°W
打ち上げ日 Sep 13, 2024
運用期間 1.6 years
タイプ internet

技術仕様

分類 Payload
質量 960.00 kg
乾燥質量 910.00 kg
総質量 960.00 kg
長さ 0.30 m
直径 4.10 m
スパン 29.00 m
形状 Box + pan
製造者 SPXS
バスタイプ Starlink V2MD
フェーズステータス In Orbit
所有者/国 SPXS/US

Most Searched